This is the latest recevied weather packets stored in our database for station/object KG4YZY-1. If no packets are shown the sender has not sent any weather packets the latest 1 day(s).
| Time | Temp. | Humidity | Pressure | Rain* | Wind** | Luminosity | Snow |
|---|---|---|---|---|---|---|---|
| 1778022304 | 26.11° C | 70% | 1016 hPa | 0 mm | 1.34 m/s, 251° | - | - |
| 1778022004 | 26.11° C | 69% | 1016.1 hPa | 0 mm | 1.34 m/s, 339° | - | - |
| 1778021704 | 26.11° C | 68% | 1016.1 hPa | 0 mm | 1.79 m/s, 300° | - | - |
| 1778021403 | 26.11° C | 68% | 1016.2 hPa | 0 mm | 1.34 m/s, 257° | - | - |
| 1778021104 | 26.11° C | 68% | 1016.3 hPa | 0 mm | 2.24 m/s, 279° | - | - |
| 1778020804 | 26.11° C | 68% | 1016.3 hPa | 0 mm | 1.79 m/s, 276° | - | - |
| 1778020504 | 26.67° C | 69% | 1016.2 hPa | 0 mm | 2.24 m/s, 303° | - | - |
| 1778020203 | 26.67° C | 69% | 1016.2 hPa | 0 mm | 2.24 m/s, 327° | - | - |
| 1778019904 | 26.67° C | 68% | 1016.1 hPa | 0 mm | 3.13 m/s, 270° | - | - |
| 1778019604 | 26.67° C | 67% | 1016.2 hPa | 0 mm | 2.68 m/s, 318° | - | - |
| 1778019304 | 26.67° C | 67% | 1016.4 hPa | 0 mm | 2.68 m/s, 311° | - | - |
| 1778019004 | 26.67° C | 67% | 1016.3 hPa | 0 mm | 1.79 m/s, 283° | - | - |
| 1778018704 | 26.67° C | 66% | 1016.3 hPa | 0 mm | 2.24 m/s, 313° | - | - |
| 1778018404 | 27.22° C | 66% | 1016.3 hPa | 0 mm | 1.79 m/s, 318° | - | - |
| 1778018103 | 27.22° C | 66% | 1016.2 hPa | 0 mm | 1.34 m/s, 316° | - | - |
| 1778017804 | 27.22° C | 66% | 1016.3 hPa | 0 mm | 1.79 m/s, 303° | - | - |
| 1778017503 | 27.22° C | 65% | 1016.3 hPa | 0 mm | 2.68 m/s, 268° | - | - |
| 1778017204 | 27.22° C | 65% | 1016.2 hPa | 0 mm | 2.24 m/s, 270° | - | - |
| 1778016903 | 27.22° C | 65% | 1016.2 hPa | 0 mm | 1.34 m/s, 296° | - | - |
| 1778016603 | 27.22° C | 64% | 1016.2 hPa | 0 mm | 2.68 m/s, 312° | - | - |
| 1778016303 | 27.22° C | 65% | 1016.2 hPa | 0 mm | 0.89 m/s, 313° | - | - |
| 1778016004 | 27.22° C | 65% | 1016.2 hPa | 0 mm | 2.24 m/s, 256° | - | - |
| 1778015704 | 27.22° C | 65% | 1016.3 hPa | 0 mm | 1.79 m/s, 299° | - | - |
| 1778015404 | 27.22° C | 64% | 1016.2 hPa | 0 mm | 2.24 m/s, 307° | - | - |
| 1778015103 | 27.22° C | 62% | 1016.1 hPa | 0 mm | 2.24 m/s, 299° | - | - |
* Rain latest hour (hover to see other rain measurements)
** Current wind speed in m/s (hover to see current wind gust speed)